OpenBCM V2.0.3 (Linux)

Packet Radio Mailbox

IZ3LSV

[San Dona' di P. JN]

 Login: GUEST





  
I0OJJ  > AMSAT    26.05.26 04:00l 340 Lines 15972 Bytes #999 (0) @ WW
BID : 1U4_IR0EQ
Read: GUEST
Subj: 2Line Orbital Elements
Path: IZ3LSV<IK6IHL<IK7NXU<HB9ON<DK0WUE<K7EK<N2NOV<I0OJJ<IR0EQ
Sent: 260526/0115z @:IR0EQ.ITA.EU [Rome] $:1U4_IR0EQ

>From i0ojj%ir0eq.ita.eu@i0ojj.ampr.org Tue May 26 03:18:44 2026
Received: from i0ojj.ampr.org by i0ojj.ampr.org (JNOS2.0q.1) with SMTP
	id AA17060775 ; Tue, 26 May 2026 03:18:44 +0200
Message-Id: <1U4_IR0EQ@i0ojj.bbs>
>From: i0ojj@ir0eq.ita.eu
X-JNOS-User-Port: Telnet   (i0ojj @ 44.27.18.9)  ->   Sending message

>From i0ojj@rgate.ampr.org Tue May 26 03:15:54 2026
Received: from rgate.ampr.org by rgate.ampr.org (JNOS2.0q.1) with SMTP
	id AA2380 ; Tue, 26 May 2026 03:15:54 +0200
Received: by rgate.ampr.org with SMTP
	id AA2377 ; Tue, 26 May 2026 02:25:29 +0200
Message-Id: <2378@rgate.ampr.org>
>From: i0ojj@rgate.ampr.org

SB KEPS @ AMSAT  $ORB26146.1
2Line Orbital Elements 26146.AMSAT

QST de W1STR

AMSAT Orbital Elements for Amateur Satellites in TLE Format
>From Orbital Analysis Office
New England Sci-Tech STEM Education Center
Natick MA May 26, 2026
To all radio amateurs


These element sets describe the orbits of various satellites 
in use by the amateur radio community. For details see:
www.amsat.org/keplerian-elements-formats/

A daily update of element sets is available at:
www.amsat.org/tle/daily-bulletin.txt
or without bulletin text:
www.amsat.org/tle/dailytle.txt


AO-07
1 07530U 74089B   26145.50123809 -.00000031  00000-0  95166-4 0  9995
2 07530 101.9908 158.5111 0012321 172.6684 342.7297 12.53697657357673
UO-11
1 14781U 84021B   26145.40003914  .00001063  00000-0  11394-3 0  9996
2 14781  97.8044 111.2326 0006082 257.6923 102.3614 14.90719463253732
AO-27
1 22825U 93061C   26145.41440540  .00000080  00000-0  47324-4 0  9990
2 22825  98.6888 212.8351 0008799 160.1409 200.0117 14.30935115703748
FO-29
1 24278U 96046B   26145.31709002 -.00000008  00000-0  25710-4 0  9996
2 24278  98.5263 357.3196 0350299 155.6468 206.1682 13.53273146470073
GO-32
1 25397U 98043D   26145.44610884  .00000054  00000-0  43712-4 0  9993
2 25397  99.0063 137.6323 0000349 329.3516  30.7641 14.24423288448099
ISS
1 25544U 98067A   26145.42220529  .00009654  00000-0  18076-3 0  9993
2 25544  51.6330  52.7989 0007470  96.3597 263.8242 15.49365963568228
NO-44
1 26931U 01043C   26145.38964784  .00000117  00000-0  74589-4 0  9992
2 26931  67.0508 303.2359 0006184 263.8379  96.2019 14.31946061287189
SO-50
1 27607U 02058C   26145.43020300  .00000782  00000-0  10978-3 0  9992
2 27607  64.5514 199.3924 0075599 266.6349  92.6107 14.82991152261081
CO-55
1 27844U 03031E   26145.48744790  .00000245  00000-0  12520-3 0  9997
2 27844  98.6738 154.3320 0008361 248.7369 111.2917 14.24319547188440
RS-22
1 27939U 03042A   26145.60378855  .00000417  00000-0  72551-4 0  9995
2 27939  98.3475 329.3258 0010991 347.3151 101.8558 14.73418869212222
CO-65
1 32785U 08021C   26145.57560729  .00004652  00000-0  29652-3 0  9999
2 32785  97.8261 126.5298 0010632 103.5655 256.6758 15.09195726981787
CO-66
1 32791U 08021J   26145.47583941  .00017447  00000-0  56920-3 0  9990
2 32791  97.7521 142.3050 0004202  58.8151 301.3501 15.31851938983812
RS-30
1 32953U 08025A   26145.64508640  .00000029  00000-0  14005-3 0  9992
2 32953  82.5059   9.4635 0019837   3.6591 356.4630 12.43178412816894
SRMSAT
1 37841U 11058D   26145.47444317  .00000372  00000-0  58040-4 0  9993
2 37841  19.9703 196.9483 0011657 315.1236 187.5474 14.11570120754605
ZACUBE-1
1 39417U 13066B   26145.34328483  .00004258  00000-0  33290-3 0  9992
2 39417  97.8107 107.5560 0040371 328.7903  31.0923 15.00990133677301
Delfi-N3xt
1 39428U 13066N   26145.48756497  .00005200  00000-0  45878-3 0  9992
2 39428  97.8342  65.8235 0073195 282.8960  76.4091 14.94796787671238
GOMX-1
1 39430U 13066Q   26145.57805387  .00001406  00000-0  21675-3 0  9991
2 39430  97.6504 347.4673 0129440 149.5292 211.3520 14.69352981666592
LO-74
1 39440U 13066AA  26145.42034475  .00003578  00000-0  33344-3 0  9996
2 39440  97.8896  94.3080 0059572 102.4399 258.3495 14.93554437673590
AO-73
1 39444U 13066AE  26145.38334711  .00006815  00000-0  42758-3 0  9997
2 39444  97.8264 116.3600 0034467 282.1903  77.5466 15.09155971676229
DTUSAT-2
1 40030U 14033W   26145.44927710  .00006670  00000-0  36428-3 0  9995
2 40030  98.0868 141.7394 0006624 323.8038  36.2743 15.14673921649241
LILACSAT-2
1 40908U 15049K   26145.62758150  .00017017  00000-0  29861-3 0  9997
2 40908  97.4678 181.6224 0006162 351.8472   8.2678 15.50596405592257
Horyu-4
1 41340U 16012D   26145.56536628  .00197902  00000-0  91093-3 0  9994
2 41340  30.9873 243.3220 0003230 126.5506 233.5450 15.81929841567214
Lapan A3
1 41603U 16040E   26145.60677850  .00003015  00000-0  96915-4 0  9995
2 41603  97.1486 142.4982 0012253  95.8370 264.4270 15.32940071551352
CAS-2T
1 41847U 16066G   26145.24509514  .00001171  00000-0  17346-3 0  9995
2 41847  98.3825 221.2420 0341711 198.9874 159.8318 14.44612230501487
TechnoSat
1 42829U 17042E   26145.37591099  .00003236  00000-0  23269-3 0  9999
2 42829  97.4268 303.9083 0018167 167.1884 192.9808 15.04797923483275
AO-91
1 43017U 17073E   26145.58258409  .00010293  00000-0  44979-3 0  9993
2 43017  97.4740  13.2645 0153037  47.1552 314.2419 15.12246380461975
S-Net D
1 43186U 18014G   26145.30264728  .00004502  00000-0  23483-3 0  9990
2 43186  97.5380  50.2378 0010122  96.4894 263.7491 15.16417214455296
S-Net B
1 43187U 18014H   26145.24766607  .00004303  00000-0  22477-3 0  9998
2 43187  97.5385  50.1690 0010782  92.8787 267.3680 15.16387299455289
S-Net A
1 43188U 18014J   26145.30164324  .00004582  00000-0  23888-3 0  9990
2 43188  97.5396  50.4271 0010629  93.2485 266.9964 15.16424413455291
S-Net C
1 43189U 18014K   26145.38339914  .00004345  00000-0  22691-3 0  9996
2 43189  97.5414  50.5797 0012043  86.9657 273.2954 15.16379794453850
Ten-Koh
1 43677U 18084G   26145.08704637  .00002375  00000-0  18225-3 0  9999
2 43677  98.0756 336.4779 0009374 191.9139 168.1864 15.02811720412692
PO-101
1 43678U 18084H   26145.62854045  .00002256  00000-0  18494-3 0  9995
2 43678  98.1138 340.8647 0011607 247.2872 112.7124 15.00326831412834
QO-100
1 43700U 18090A   26145.58884179  .00000144  00000-0  00000-0 0  9999
2 43700   0.0389  94.9524 0001697 359.9892  26.0068  1.00273244 27450
MinXSS-2
1 43758U 18099A   26145.18024881  .00034893  00000-0  73473-3 0  9998
2 43758  97.4544 220.8193 0006319 357.4373   2.6842 15.45179555410574
AO-95
1 43770U 18099N   26145.59282205  .00010893  00000-0  42389-3 0  9999
2 43770  97.4402 205.9301 0010165  73.6783 286.5572 15.26140361409777
SNUSat 2
1 43782U 18099AA  26145.58037997  .00007754  00000-0  34778-3 0  9992
2 43782  97.4076 199.3161 0010570  24.9734 335.2011 15.21434682409599
SnugLite
1 43784U 18099AC  26145.40341623  .00011146  00000-0  42824-3 0  9990
2 43784  97.3887 199.9151 0003268  43.0969 317.0525 15.26598846409847
ITASat 1
1 43786U 18099AE  26145.09569215  .00006696  00000-0  32508-3 0  9998
2 43786  97.4047 197.0718 0014206  76.6272 283.6545 15.18708379409406
EAGLET 1
1 43790U 18099AJ  26145.10134337  .00003557  00000-0  20632-3 0  9996
2 43790  97.4250 195.3831 0012686  69.7087 290.5507 15.12730541408843
ESEO
1 43792U 18099AL  26145.56283378  .00001256  00000-0  94511-4 0  9990
2 43792  97.3994 183.9199 0013671  56.7493 303.5041 15.04169051408404
JO-97
1 43803U 18099AX  26145.58022645  .00016643  00000-0  52678-3 0  9996
2 43803  97.4147 208.3482 0005046   8.6657 351.4671 15.32822128410169
Suomi 100
1 43804U 18099AY  26145.41880924  .00012431  00000-0  45958-3 0  9995
2 43804  97.4205 205.9049 0009741  11.3025 348.8432 15.27809501409946
ISAT
1 43879U 18111D   26145.37354979  .00081264  00000-0  95990-3 0  9994
2 43879  97.5895  78.9131 0006243  58.5037 301.6829 15.61030495407608
UWE-4
1 43880U 18111E   26145.55216064  .00031177  00000-0  67103-3 0  9991
2 43880  97.5853  72.9261 0009807  58.2053 302.0148 15.44526568407281
Sparrow
1 43881U 18111F   26145.33027597  .00116995  00000-0  10487-2 0  9993
2 43881  97.6122  84.1167 0006682  91.6626 268.5400 15.67919519407786
Prox-1
1 44339U 19036A   26145.56044429  .00013022  00000-0  12883-2 0  9996
2 44339  23.9950 265.3322 0006519 125.4682 234.6426 14.89995350370094
Taurus 1
1 44530U 19059C   26145.60657745  .00004847  00000-0  78375-3 0  9994
2 44530  98.6403 309.0406 0008618  31.7317 328.4406 14.71808800355327
TO-108
1 44881U 19093C   26145.62932822  .00001578  00000-0  18421-3 0  9999
2 44881  97.7531 218.4114 0014094 155.3218 204.8676 14.86477687348065
RS-44
1 44909U 19096E   26145.33250234  .00000022  00000-0  45398-4 0  9998
2 44909  82.5226 354.8951 0217138 197.5572 161.7941 12.79748351299428
SALSAT
1 46495U 20068K   26144.98774178  .00007014  00000-0  24856-3 0  9992
2 46495  97.8855 146.6473 0010594  33.8053 326.3859 15.29404891311817
CSS (TIANHE-1)
1 48274U 21035A   26145.51067809  .00014512  00000-0  17905-3 0  9998
2 48274  41.4679  99.9009 0011051 279.1269  80.8319 15.59810900289622
CUTE
1 49263U 21088D   26145.25812032  .00260488  00000-0  12615-2 0  9999
2 49263  97.4191 242.4981 0003765 263.1184  96.9656 15.81807184258912
TeikyoSat 4
1 49396U 21102B   26145.05152965  .00001404  00000-0  91505-4 0  9991
2 49396  97.3685 175.4344 0012554  20.8330 339.3409 15.09411383249238
Z-Sat
1 49399U 21102E   26145.59061306  .00004482  00000-0  22262-3 0  9993
2 49399  97.3341 181.6012 0015696 331.8668  28.1717 15.18065545250018
KOSEN 1
1 49402U 21102H   26145.06993241  .00006574  00000-0  25441-3 0  9998
2 49402  97.3207 187.6803 0011903 291.3952  68.6016 15.26464520250499
HO-113
1 50466U 21131B   26145.63203166  .00000801  00000-0  26115-3 0  9991
2 50466  98.4963 238.1455 0004618 151.0505 209.0941 14.41333551231861
SNUGLITE 2
1 52899U 22065F   26145.34497988  .00000874  00000-0  17489-3 0  9999
2 52899  98.2174 290.2207 0008798  95.8254 264.3951 14.64296892207654
